N7BDR Weather Reports


Display with metric or nautical units.
time (UTC)temp
F
wind
direction
speed
MPH
gust
MPH
rain 1hr
in
rain 24hr
in
rain mn
in
humidity
%
barometer
mb
20260901054718 64 266 3.0 9.0 0.00 0.14 0.15 72 1011.0
20260901054211 64 165 3.0 12.0 0.00 0.14 0.15 71 1010.9
20260901053046 64 232 2.0 12.0 0.00 0.14 0.15 70 1011.3
20260901052538 64 255 2.0 12.0 0.00 0.14 0.15 70 1011.4
20260901052038 64 268 3.0 9.0 0.00 0.14 0.15 71 1011.5
20260901051538 64 273 4.0 12.0 0.00 0.14 0.15 71 1011.5
20260901051025 64 259 4.0 12.0 0.00 0.14 0.15 70 1011.5
20260901050521 64 254 5.0 12.0 0.00 0.14 0.15 69 1011.6
20260901045410 64 166 4.0 11.0 0.00 0.14 0.15 69 1011.5
20260901044856 64 264 2.0 11.0 0.00 0.14 0.15 69 1011.6
20260901044341 64 270 2.0 10.0 0.00 0.14 0.15 68 1011.7
20260901043238 63 264 1.0 7.0 0.00 0.14 0.15 69 1011.6
20260901042721 63 233 0.0 1.0 0.00 0.14 0.15 74 1011.6
20260901042232 63 309 0.0 2.0 0.00 0.14 0.15 74 1011.7
20260901041108 64 304 0.0 2.0 0.00 0.14 0.15 70 1011.6
20260901035930 64 237 0.0 5.0 0.00 0.14 0.15 67 1011.3
20260901035431 63 170 0.0 5.0 0.00 0.14 0.15 70 1011.2
20260901034936 63 172 0.0 3.0 0.00 0.14 0.15 72 1011.2
20260901033804 64 284 1.0 0.0 0.00 0.14 0.15 71 1011.4
20260901033301 64 251 2.0 12.0 0.00 0.14 0.15 70 1011.3
20260901032753 64 227 2.0 12.0 0.00 0.14 0.15 70 1011.3
20260901032247 64 232 2.0 12.0 0.00 0.14 0.15 70 1011.2
20260901031755 64 182 3.0 12.0 0.00 0.14 0.15 69 1011.3
20260901031255 64 280 3.0 8.0 0.00 0.14 0.15 69 1011.2
20260901030753 64 258 3.0 8.0 0.00 0.14 0.15 70 1011.1
20260901030247 64 220 2.0 7.0 0.00 0.14 0.15 70 1011.0
20260901025755 64 251 2.0 7.0 0.00 0.14 0.15 71 1010.8
20260901025305 64 273 3.0 7.0 0.00 0.14 0.15 72 1010.8
20260901024133 63 227 3.0 14.0 0.00 0.14 0.15 74 1010.8
20260901023637 63 271 4.0 14.0 0.00 0.14 0.15 74 1010.8
20260901023140 63 258 5.0 14.0 0.00 0.14 0.15 74 1010.6
20260901022645 63 265 5.0 14.0 0.00 0.14 0.15 74 1010.7
20260901022136 63 274 5.0 11.0 0.00 0.14 0.15 74 1010.6
20260901021014 63 239 3.0 14.0 0.00 0.14 0.15 72 1010.8
20260901020456 64 154 3.0 14.0 0.00 0.14 0.15 72 1010.9
20260901020004 64 221 4.0 14.0 0.00 0.14 0.15 71 1010.9
20260901015502 64 165 5.0 14.0 0.00 0.14 0.15 71 1010.9
20260901014953 64 272 4.0 12.0 0.00 0.14 0.15 71 1010.9
20260901014449 64 254 3.0 10.0 0.00 0.14 0.15 70 1011.1
20260901013932 64 221 3.0 9.0 0.00 0.14 0.15 71 1011.2
20260901013437 64 246 2.0 9.0 0.00 0.14 0.15 72 1011.2
20260901012922 64 178 1.0 8.0 0.00 0.14 0.15 73 1011.3
20260901012426 63 295 1.0 3.0 0.00 0.14 0.15 74 1011.5
20260901011913 63 185 1.0 11.0 0.00 0.14 0.15 73 1011.6
20260901011411 63 189 2.0 11.0 0.00 0.14 0.15 73 1011.7
20260901010909 63 156 3.0 11.0 0.00 0.14 0.15 73 1011.7
20260901010408 63 211 2.0 11.0 0.00 0.14 0.15 74 1011.8
20260901005906 63 174 2.0 11.0 0.00 0.14 0.15 77 1011.8
20260901004734 63 158 3.0 11.0 0.04 0.14 0.15 76 1011.7
20260901003634 63 223 5.0 15.0 0.04 0.14 0.15 76 1011.8
20260901003122 63 165 6.0 15.0 0.04 0.13 0.13 76 1011.8
20260901002003 64 184 6.0 18.0 0.09 0.13 0.13 76 1011.7
20260901001458 64 149 5.0 18.0 0.08 0.13 0.13 76 1011.8
20260901000951 64 146 6.0 15.0 0.09 0.12 0.12 77 1011.7
20260901000444 64 150 7.0 15.0 0.10 0.12 0.12 77 1011.6
20260831235947 64 204 4.0 13.0 0.09 0.10 0.10 78 1011.4
20260831235429 64 209 4.0 11.0 0.09 0.09 0.10 77 1011.2
20260831234910 64 260 4.0 11.0 0.12 0.09 0.09 74 1010.7
20260831234358 64 264 5.0 13.0 0.08 0.08 0.08 76 1010.7
20260831233843 65 258 7.0 13.0 0.09 0.06 0.06 76 1010.3
20260831233337 65 270 8.0 23.0 0.13 0.06 0.06 74 1009.8
20260831232206 67 251 7.0 23.0 0.27 0.03 0.03 67 1009.8
20260831231710 67 265 7.0 23.0 0.00 0.01 0.01 62 1010.0
20260831231156 68 252 6.0 24.0 0.00 0.01 0.01 63 1009.5
20260831230704 70 273 11.0 24.0 0.00 0.00 0.00 58 1009.1
20260831230203 72 245 13.0 24.0 0.00 0.00 0.00 49 1008.7
20260831225657 74 263 11.0 24.0 0.00 0.00 0.00 46 1008.4
20260831225158 76 246 7.0 23.0 0.00 0.00 0.00 45 1008.2
20260831224006 76 295 0.0 6.0 0.00 0.00 0.00 45 1007.5
20260831221547 79 256 3.0 9.0 0.00 0.00 0.00 50 1007.0
20260831221045 80 287 1.0 9.0 0.00 0.00 0.00 46 1006.8
20260831215909 82 272 0.0 3.0 0.00 0.00 0.00 43 1006.2
20260831215352 83 306 0.0 3.0 0.00 0.00 0.00 43 1006.3
20260831214853 84 311 1.0 8.0 0.00 0.00 0.00 40 1006.3
20260831214349 85 297 2.0 12.0 0.00 0.00 0.00 32 1006.4
20260831213852 85 226 4.0 12.0 0.00 0.00 0.00 32 1006.3
20260831212741 86 258 4.0 12.0 0.00 0.00 0.00 31 1006.4
20260831212240 86 167 3.0 10.0 0.00 0.00 0.00 31 1006.4
20260831211743 86 194 3.0 10.0 0.00 0.00 0.00 32 1006.4
20260831211251 86 274 2.0 10.0 0.00 0.00 0.00 32 1006.4
20260831210802 85 176 3.0 10.0 0.00 0.00 0.00 33 1006.5
20260831210256 85 206 3.0 13.0 0.00 0.00 0.00 32 1006.6
20260831205746 85 263 3.0 13.0 0.00 0.00 0.00 32 1006.6
20260831205256 85 237 5.0 13.0 0.00 0.00 0.00 33 1006.8
20260831204745 85 254 6.0 13.0 0.00 0.00 0.00 32 1006.9
20260831204235 85 191 5.0 13.0 0.00 0.00 0.00 32 1006.9
20260831203724 86 158 5.0 13.0 0.00 0.00 0.00 31 1007.0
20260831203228 86 211 4.0 10.0 0.00 0.00 0.00 31 1007.0
20260831202732 87 269 3.0 9.0 0.00 0.00 0.00 31 1007.0
20260831202214 87 152 4.0 9.0 0.00 0.00 0.00 33 1007.0
20260831201714 86 169 4.0 14.0 0.00 0.00 0.00 32 1007.1
20260831201203 86 257 5.0 14.0 0.00 0.00 0.00 32 1007.2
20260831200644 86 214 6.0 14.0 0.00 0.00 0.00 33 1007.5
20260831195522 86 234 4.0 12.0 0.00 0.00 0.00 35 1007.7
20260831195024 85 242 5.0 12.0 0.00 0.00 0.00 34 1007.8
20260831194523 85 217 4.0 12.0 0.00 0.00 0.00 34 1007.9
20260831194006 84 181 4.0 12.0 0.00 0.00 0.00 35 1008.0
20260831193500 83 279 3.0 12.0 0.00 0.00 0.00 35 1008.1
20260831192346 84 162 4.0 11.0 0.00 0.00 0.00 34 1008.4
20260831191844 84 282 5.0 11.0 0.00 0.00 0.00 35 1008.4
20260831191340 84 171 4.0 11.0 0.00 0.00 0.00 34 1008.5
20260831190846 84 212 4.0 11.0 0.00 0.00 0.00 36 1008.5
20260831190355 83 246 4.0 10.0 0.00 0.00 0.00 36 1008.6
20260831185208 82 246 5.0 13.0 0.00 0.00 0.00 36 1008.8
20260831184654 83 276 5.0 16.0 0.00 0.00 0.00 35 1008.8
20260831184202 83 247 5.0 16.0 0.00 0.00 0.00 36 1008.9
20260831183711 82 237 6.0 16.0 0.00 0.00 0.00 38 1008.9
20260831183207 81 164 5.0 16.0 0.00 0.00 0.00 39 1009.0
20260831182704 80 163 4.0 10.0 0.00 0.00 0.00 40 1009.1
20260831182155 79 176 3.0 10.0 0.00 0.00 0.00 39 1009.2
20260831181646 79 237 3.0 14.0 0.00 0.00 0.00 41 1009.4
20260831181140 79 222 3.0 11.0 0.00 0.00 0.00 42 1009.6
20260831180008 78 208 2.0 10.0 0.00 0.00 0.00 44 1009.6
20260831174833 77 180 2.0 10.0 0.00 0.00 0.00 46 1009.8
20260831174342 78 288 1.0 7.0 0.00 0.00 0.00 47 1009.8
20260831173841 77 174 0.0 6.0 0.00 0.00 0.00 48 1009.8
20260831172703 77 210 1.0 5.0 0.00 0.00 0.00 48 1009.9
20260831172145 77 170 0.0 2.0 0.00 0.00 0.00 48 1009.9
20260831170410 76 258 2.0 10.0 0.00 0.00 0.00 49 1010.0
20260831165912 76 204 4.0 10.0 0.00 0.00 0.00 48 1010.0
20260831165357 76 171 4.0 13.0 0.00 0.00 0.00 47 1010.0
20260831164857 77 197 4.0 13.0 0.00 0.00 0.00 46 1010.0
20260831164404 77 239 3.0 13.0 0.00 0.00 0.00 46 1010.0
20260831163912 77 185 2.0 13.0 0.00 0.00 0.00 46 1010.0
20260831162108 76 233 0.0 7.0 0.00 0.00 0.00 50 1009.8
20260831161607 76 270 0.0 7.0 0.00 0.00 0.00 50 1009.8
20260831161105 76 145 0.0 7.0 0.00 0.00 0.00 49 1009.8
20260831160600 76 244 0.0 4.0 0.00 0.00 0.00 49 1009.7
20260831160106 76 325 0.0 5.0 0.00 0.00 0.00 48 1009.7
20260831155611 76 241 0.0 3.0 0.00 0.00 0.00 47 1009.7
20260831154442 75 220 0.0 3.0 0.00 0.00 0.00 47 1009.9
20260831153310 74 85 0.0 1.0 0.00 0.00 0.00 45 1010.0
20260831152811 73 348 0.0 0.0 0.00 0.00 0.00 44 1010.0
20260831152312 73 353 0.0 1.0 0.00 0.00 0.00 43 1010.1
20260831151756 73 11 0.0 1.0 0.00 0.00 0.00 43 1010.1
20260831151306 73 326 0.0 2.0 0.00 0.00 0.00 45 1010.3
20260831150757 72 277 0.0 0.0 0.00 0.00 0.00 50 1010.3
20260831144346 70 258 1.0 5.0 0.00 0.00 0.00 62 1010.4
20260831143833 68 227 1.0 5.0 0.00 0.00 0.00 63 1010.4
20260831143317 67 266 0.0 5.0 0.00 0.00 0.00 65 1010.5
20260831142814 67 270 0.0 3.0 0.00 0.00 0.00 67 1010.5
20260831142312 66 271 0.0 3.0 0.00 0.00 0.00 68 1010.4
20260831141807 65 239 0.0 3.0 0.00 0.00 0.00 70 1010.3
20260831141315 64 239 0.0 3.0 0.00 0.00 0.00 72 1010.3
20260831140802 63 187 0.0 3.0 0.00 0.00 0.00 72 1010.4
20260831140303 63 226 0.0 3.0 0.00 0.00 0.00 73 1010.3
20260831135745 63 211 0.0 2.0 0.00 0.00 0.00 74 1010.4
20260831135231 63 265 0.0 0.0 0.00 0.00 0.00 74 1010.3
20260831134719 63 233 0.0 1.0 0.00 0.00 0.00 74 1010.2
20260831133543 61 257 0.0 0.0 0.00 0.00 0.00 79 1010.2
20260831133031 60 257 0.0 0.0 0.00 0.00 0.00 81 1010.0
20260831132530 59 258 0.0 0.0 0.00 0.00 0.00 82 1010.0
20260831131413 59 258 0.0 0.0 0.00 0.00 0.00 82 1010.0
20260831125635 59 263 0.0 0.0 0.00 0.00 0.00 81 1009.8
20260831125136 59 342 0.0 0.0 0.00 0.00 0.00 80 1009.8
20260831124626 59 343 0.0 0.0 0.00 0.00 0.00 79 1009.8
20260831124125 60 335 0.0 0.0 0.00 0.00 0.00 78 1009.9
20260831123631 60 335 0.0 0.0 0.00 0.00 0.00 78 1009.8
20260831122509 61 57 0.0 0.0 0.00 0.00 0.00 76 1009.8
20260831122001 61 57 0.0 0.0 0.00 0.00 0.00 75 1009.8
20260831121505 61 57 0.0 0.0 0.00 0.00 0.00 74 1009.9
20260831120955 62 322 0.0 0.0 0.00 0.00 0.00 73 1009.9
20260831115804 63 256 0.0 1.0 0.00 0.00 0.00 71 1009.8
20260831115306 63 213 0.0 6.0 0.00 0.00 0.00 71 1009.8
20260831114800 63 239 0.0 6.0 0.00 0.00 0.00 72 1009.8
20260831114243 62 252 0.0 2.0 0.00 0.00 0.00 73 1009.9
20260831113746 62 256 0.0 3.0 0.00 0.00 0.00 73 1010.0
20260831113251 62 244 0.0 3.0 0.00 0.00 0.00 74 1010.0
20260831112142 61 242 0.0 1.0 0.00 0.01 0.00 73 1010.0
20260831111020 62 228 0.0 2.0 0.00 0.01 0.00 72 1009.9
20260831110504 61 232 0.0 4.0 0.00 0.01 0.00 72 1009.8
20260831110010 61 232 1.0 4.0 0.00 0.01 0.00 72 1009.8
20260831105502 61 232 1.0 4.0 0.00 0.01 0.00 73 1009.7
20260831104950 61 166 1.0 3.0 0.00 0.01 0.00 74 1009.6
20260831104455 60 235 0.0 2.0 0.00 0.01 0.00 75 1009.6
20260831103959 60 240 0.0 1.0 0.00 0.01 0.00 76 1009.7
20260831103506 60 253 0.0 0.0 0.00 0.01 0.00 77 1009.6
20260831102345 60 253 0.0 0.0 0.00 0.01 0.00 77 1009.6
20260831101855 60 253 0.0 0.0 0.00 0.01 0.00 77 1009.7
20260831101339 61 253 0.0 0.0 0.00 0.01 0.00 76 1009.7
20260831100223 61 253 0.0 0.0 0.00 0.01 0.00 73 1009.6
20260831095706 61 253 0.0 0.0 0.00 0.01 0.00 73 1009.5
20260831095203 61 253 0.0 0.0 0.00 0.01 0.00 74 1009.5
20260831093429 61 260 0.0 0.0 0.00 0.01 0.00 75 1009.5
20260831092252 61 260 0.0 0.0 0.00 0.01 0.00 73 1009.5
20260831091745 62 260 0.0 0.0 0.00 0.01 0.00 72 1009.5
20260831091253 62 260 0.0 0.0 0.00 0.01 0.00 72 1009.5
20260831090751 62 259 0.0 0.0 0.00 0.01 0.00 73 1009.5
20260831090234 61 259 0.0 0.0 0.00 0.01 0.00 74 1009.5
20260831085114 61 253 0.0 0.0 0.00 0.01 0.00 75 1009.4
20260831084621 61 242 0.0 0.0 0.00 0.02 0.00 75 1009.4
20260831084108 61 237 0.0 0.0 0.00 0.04 0.00 74 1009.5
20260831083557 62 237 0.0 0.0 0.00 0.04 0.00 74 1009.5
20260831083049 62 235 0.0 1.0 0.00 0.04 0.00 75 1009.5
20260831082537 61 249 0.0 1.0 0.00 0.04 0.00 76 1009.6
20260831082038 61 260 0.0 0.0 0.00 0.04 0.00 76 1009.7
20260831081546 61 261 0.0 0.0 0.00 0.04 0.00 76 1009.6
20260831081048 61 261 0.0 0.0 0.00 0.04 0.00 76 1009.6
20260831080545 61 260 0.0 2.0 0.00 0.04 0.00 76 1009.6
20260831080036 61 272 0.0 0.0 0.00 0.04 0.00 77 1009.6
20260831075527 61 276 0.0 0.0 0.00 0.04 0.00 76 1009.7
20260831075017 62 277 0.0 0.0 0.00 0.04 0.00 75 1009.7
20260831074517 62 277 0.0 0.0 0.00 0.04 0.00 75 1009.7
20260831074019 62 246 0.0 0.0 0.00 0.04 0.00 74 1009.7
20260831073526 62 245 0.0 0.0 0.00 0.04 0.00 73 1009.6
20260831073008 63 245 0.0 0.0 0.00 0.04 0.00 73 1009.6
20260831072504 63 245 0.0 0.0 0.00 0.04 0.00 71 1009.5
20260831071957 63 245 0.0 0.0 0.00 0.04 0.00 71 1009.6
20260831071450 63 230 0.0 2.0 0.00 0.04 0.00 71 1009.6
20260831070945 63 88 0.0 0.0 0.00 0.04 0.00 72 1009.7
20260831070450 63 87 0.0 0.0 0.00 0.04 0.00 71 1009.6
20260831065958 64 78 0.0 0.0 0.00 0.04 0.00 70 1009.6
20260831065458 64 78 0.0 0.0 0.00 0.04 0.00 69 1009.6
20260831064336 64 78 0.0 0.0 0.00 0.04 0.00 69 1009.4
20260831063200 64 78 0.0 0.0 0.00 0.04 0.00 70 1009.3
20260831062651 64 261 0.0 0.0 0.00 0.04 0.00 70 1009.4
20260831062132 64 261 0.0 0.0 0.00 0.04 0.00 70 1009.4
20260831061629 64 261 0.0 0.0 0.00 0.04 0.00 70 1009.3
20260831061125 64 261 0.0 0.0 0.00 0.04 0.00 70 1009.3
20260831060632 64 250 0.0 0.0 0.00 0.04 0.00 70 1009.2
20260831060115 64 250 0.0 0.0 0.00 0.04 0.00 70 1009.2
20260831055600 64 250 0.0 0.0 0.00 0.04 0.05 69 1009.1